Weather History for KDHT - September, 2012

Change the Weather History Date:

Wednesday, September 19, 2012

  Actual Average Record
Temperature  
Mean Temperature 68 °F 66 °F  
Max Temperature 90 °F 81 °F 97 °F (1983)
Min Temperature 46 °F 51 °F 37 °F (2003)
Degree Days  
Heating Degree Days 0 2  
Month to date heating degree days 24 19  
Since 1 July heating degree days 24 22  
Cooling Degree Days 3 3  
Month to date cooling degree days 121 107  
Year to date cooling degree days 1593 1103  
Growing Degree Days 18 (Base 50)    
Moisture  
Dew Point 40 °F    
Average Humidity 47    
Maximum Humidity 80    
Minimum Humidity 14    
Precipitation  
Precipitation 0.00 in 0.05 in 2.90 in (1985)
Month to date precipitation 0.25 1.09  
Year to date precipitation 6.22 14.44  
Snow  
Snow 0.00 in 0.00 in 0.00 in ()
Month to date snowfall 0.0 0.0  
Since 1 July snowfall 0.0 0.0  
Since 1 September snowfall 0.0 0.0  
Snow Depth 0.00 in    
Sea Level Pressure  
Sea Level Pressure 29.97 in    
Wind  
Wind Speed 5 mph (SSE)    
Max Wind Speed 12 mph    
Max Gust Speed 14 mph    
Visibility 10 miles    
Events      
T = Trace of Precipitation, MM = Missing Value Source: NWS Daily Summary

Daily Weather History Graph

Daily Weather History Graph

Search for Another Location

Airport or City:

Trip Planner

Search our weather history database for the weather conditions in past years. The results will help you decide how hot, cold, wet, or windy it might be!

Date:

Astronomy

Sep. 19, 2012 Rise Set
Actual Time 7:36 AM CDT 7:50 PM CDT
Civil Twilight 7:10 AM CDT 8:16 PM CDT
Nautical Twilight 6:40 AM CDT 8:46 PM CDT
Astronomical Twilight 6:10 AM CDT 9:16 PM CDT
Moon 11:39 AM CDT (9/19) 10:12 PM CDT (9/19)
Length of Visible Light 13h 05m
Length of Day
12h 14m
Waxing Crescent, 17% of the Moon is Illuminated
Sep 19
Waxing Crescent
Sep 22
First Quarter
Sep 29
Full
Oct 8
Last Quarter
Oct 15
New

Hourly Weather History & Observations

Time (CDT) Temp. Dew Point Humidity Pressure Visibility Wind Dir Wind Speed Gust Speed Precip Events Conditions
12:53 AM 55.0 °F 41.0 °F 59% 30.01 in 10.0 mi SW 3.5 mph - N/A   Clear
1:53 AM 53.1 °F 39.9 °F 61% 30.00 in 10.0 mi SSW 4.6 mph - N/A   Clear
2:53 AM 53.1 °F 41.0 °F 64% 29.98 in 10.0 mi South 3.5 mph - N/A   Clear
3:53 AM 53.1 °F 41.0 °F 64% 29.97 in 10.0 mi SSW 4.6 mph - N/A   Clear
4:53 AM 50.0 °F 41.0 °F 71% 29.97 in 9.0 mi SW 5.8 mph - N/A   Clear
5:53 AM 46.9 °F 39.9 °F 77% 29.98 in 10.0 mi SSW 9.2 mph - N/A   Clear
6:53 AM 48.0 °F 42.1 °F 80% 29.98 in 7.0 mi West 5.8 mph - N/A   Clear
7:53 AM 48.0 °F 41.0 °F 77% 30.01 in 10.0 mi WSW 5.8 mph - N/A   Clear
8:53 AM 55.9 °F 44.1 °F 64% 30.01 in 8.0 mi WSW 3.5 mph - N/A   Clear
9:53 AM 63.0 °F 43.0 °F 48% 30.01 in 10.0 mi Calm Calm - N/A   Clear
10:53 AM 70.0 °F 39.0 °F 32% 30.00 in 10.0 mi Calm Calm - N/A   Clear
11:53 AM 75.9 °F 37.0 °F 24% 29.99 in 10.0 mi Calm Calm - N/A   Clear
12:53 PM 81.0 °F 37.9 °F 21% 29.97 in 10.0 mi ESE 3.5 mph - N/A   Clear
1:53 PM 84.9 °F 39.0 °F 20% 29.95 in 10.0 mi East 3.5 mph - N/A   Clear
2:53 PM 87.1 °F 34.0 °F 15% 29.92 in 10.0 mi Variable 3.5 mph - N/A   Clear
3:53 PM 89.1 °F 34.0 °F 14% 29.90 in 10.0 mi Variable 5.8 mph - N/A   Clear
4:53 PM 89.1 °F 33.1 °F 14% 29.90 in 10.0 mi East 5.8 mph - N/A   Clear
5:53 PM 89.1 °F 34.0 °F 14% 29.91 in 10.0 mi ESE 6.9 mph - N/A   Clear
6:53 PM 84.0 °F 39.9 °F 21% 29.92 in 10.0 mi ESE 9.2 mph - N/A   Clear
7:53 PM 77.0 °F 41.0 °F 28% 30.06 in 10.0 mi ESE 6.9 mph - N/A   Clear
8:53 PM 72.0 °F 43.0 °F 35% 29.95 in 10.0 mi ESE 8.1 mph - N/A   Clear
9:53 PM 68.0 °F 43.0 °F 40% 29.96 in 10.0 mi SE 5.8 mph - N/A   Clear
10:53 PM 63.0 °F 43.0 °F 48% 29.97 in 10.0 mi South 6.9 mph - N/A   Clear
11:53 PM 69.1 °F 46.9 °F 45% 29.95 in 10.0 mi SE 10.4 mph - N/A   Clear